Time,TemperatureF,DewpointF,PressureIn,WindDirection,WindDirectionDegrees,WindSpeedMPH,WindSpeedGustMPH,Humidity,HourlyPrecipIn,Conditions,Clouds,dailyrainin,SoftwareType,DateUTC
2013-01-09 00:00:00,29.4,27.9,30.23,South,180,0.0,6.0,94,0.00,,,0.00,Weather View 32 v70,2013-01-09 05:00:00,
2013-01-09 00:01:00,29.3,27.8,30.23,South,180,0.0,6.0,94,0.00,,,0.00,Weather View 32 v70,2013-01-09 05:01:00,
2013-01-09 00:03:00,29.3,27.8,30.23,South,180,2.0,4.0,94,0.00,,,0.00,Weather View 32 v70,2013-01-09 05:03:00,
2013-01-09 00:04:00,29.4,27.9,30.23,SSE,157,1.0,4.0,94,0.00,,,0.00,Weather View 32 v70,2013-01-09 05:04:00,
2013-01-09 00:09:00,29.0,27.5,30.23,SSE,157,1.0,4.0,94,0.00,,,0.00,Weather View 32 v70,2013-01-09 05:09:00,
2013-01-09 00:14:00,28.7,27.2,30.23,South,180,0.0,4.0,94,0.00,,,0.00,Weather View 32 v70,2013-01-09 05:14:00,
2013-01-09 00:20:00,28.4,26.9,30.23,SSW,202,1.0,4.0,94,0.00,,,0.00,Weather View 32 v70,2013-01-09 05:20:00,
2013-01-09 00:25:00,28.3,26.8,30.23,South,180,2.0,4.0,94,0.00,,,0.00,Weather View 32 v70,2013-01-09 05:25:00,
2013-01-09 00:30:00,28.1,26.6,30.22,South,180,0.0,4.0,94,0.00,,,0.00,Weather View 32 v70,2013-01-09 05:30:00,
2013-01-09 00:35:00,28.2,26.7,30.22,South,180,0.0,4.0,94,0.00,,,0.00,Weather View 32 v70,2013-01-09 05:35:00,
2013-01-09 00:40:00,28.4,26.9,30.22,South,180,1.0,4.0,94,0.00,,,0.00,Weather View 32 v70,2013-01-09 05:40:00,
2013-01-09 00:45:00,28.4,26.9,30.22,South,180,2.0,4.0,94,0.00,,,0.00,Weather View 32 v70,2013-01-09 05:45:00,
2013-01-09 00:50:00,28.3,26.8,30.22,South,180,1.0,4.0,94,0.00,,,0.00,Weather View 32 v70,2013-01-09 05:50:00,
2013-01-09 00:55:00,28.3,26.8,30.22,NE,45,2.0,4.0,94,0.00,,,0.00,Weather View 32 v70,2013-01-09 05:55:00,
2013-01-09 01:00:00,28.1,26.6,30.22,NE,45,0.0,3.0,94,0.00,,,0.00,Weather View 32 v70,2013-01-09 06:00:00,
2013-01-09 01:05:00,27.8,26.3,30.22,NE,45,0.0,3.0,94,0.00,,,0.00,Weather View 32 v70,2013-01-09 06:05:00,
2013-01-09 01:10:00,27.4,25.9,30.22,NE,45,0.0,3.0,94,0.00,,,0.00,Weather View 32 v70,2013-01-09 06:10:00,
2013-01-09 01:15:00,27.1,25.6,30.22,NE,45,0.0,3.0,94,0.00,,,0.00,Weather View 32 v70,2013-01-09 06:15:00,
2013-01-09 01:20:00,27.0,25.5,30.22,WNW,292,1.0,3.0,94,0.00,,,0.00,Weather View 32 v70,2013-01-09 06:20:00,
2013-01-09 01:25:00,26.9,25.4,30.22,WNW,292,0.0,3.0,94,0.00,,,0.00,Weather View 32 v70,2013-01-09 06:25:00,
2013-01-09 01:30:00,26.4,24.9,30.22,WNW,292,0.0,3.0,94,0.00,,,0.00,Weather View 32 v70,2013-01-09 06:30:00,
2013-01-09 01:35:00,26.1,24.6,30.23,SE,135,2.0,3.0,94,0.00,,,0.00,Weather View 32 v70,2013-01-09 06:35:00,
2013-01-09 01:40:00,26.1,24.6,30.23,SE,135,1.0,3.0,94,0.00,,,0.00,Weather View 32 v70,2013-01-09 06:40:00,
2013-01-09 01:45:00,26.3,24.8,30.23,SE,135,0.0,3.0,94,0.00,,,0.00,Weather View 32 v70,2013-01-09 06:45:00,
2013-01-09 01:50:00,25.9,24.4,30.23,SE,135,0.0,2.0,94,0.00,,,0.00,Weather View 32 v70,2013-01-09 06:50:00,
2013-01-09 01:55:00,25.9,24.4,30.23,SE,135,0.0,2.0,94,0.00,,,0.00,Weather View 32 v70,2013-01-09 06:55:00,
2013-01-09 02:00:00,25.5,24.0,30.24,SE,135,0.0,2.0,94,0.00,,,0.00,Weather View 32 v70,2013-01-09 07:00:00,
2013-01-09 02:05:00,24.9,23.2,30.24,SE,135,0.0,2.0,93,0.00,,,0.00,Weather View 32 v70,2013-01-09 07:05:00,
2013-01-09 02:10:00,24.5,22.8,30.24,SE,135,0.0,2.0,93,0.00,,,0.00,Weather View 32 v70,2013-01-09 07:10:00,
2013-01-09 02:15:00,24.5,22.8,30.23,SE,135,1.0,2.0,93,0.00,,,0.00,Weather View 32 v70,2013-01-09 07:15:00,
2013-01-09 02:20:00,24.3,22.6,30.23,SE,135,1.0,2.0,93,0.00,,,0.00,Weather View 32 v70,2013-01-09 07:20:00,
2013-01-09 02:25:00,24.1,22.4,30.23,SE,135,0.0,2.0,93,0.00,,,0.00,Weather View 32 v70,2013-01-09 07:25:00,
2013-01-09 02:30:00,23.9,22.2,30.22,SE,135,0.0,2.0,93,0.00,,,0.00,Weather View 32 v70,2013-01-09 07:30:00,
2013-01-09 02:35:00,23.8,22.1,30.22,SE,135,0.0,2.0,93,0.00,,,0.00,Weather View 32 v70,2013-01-09 07:35:00,
2013-01-09 02:40:00,23.5,21.8,30.22,South,180,0.0,2.0,93,0.00,,,0.00,Weather View 32 v70,2013-01-09 07:40:00,
2013-01-09 02:45:00,23.3,21.6,30.22,South,180,0.0,2.0,93,0.00,,,0.00,Weather View 32 v70,2013-01-09 07:45:00,
2013-01-09 02:51:00,23.1,21.4,30.22,South,180,0.0,2.0,93,0.00,,,0.00,Weather View 32 v70,2013-01-09 07:51:00,
2013-01-09 02:56:00,22.9,21.2,30.22,South,180,0.0,2.0,93,0.00,,,0.00,Weather View 32 v70,2013-01-09 07:56:00,
2013-01-09 03:01:00,22.8,21.1,30.21,South,180,0.0,2.0,93,0.00,,,0.00,Weather View 32 v70,2013-01-09 08:01:00,
2013-01-09 03:06:00,22.4,20.7,30.21,South,180,0.0,2.0,93,0.00,,,0.00,Weather View 32 v70,2013-01-09 08:06:00,
2013-01-09 03:11:00,22.5,20.8,30.21,South,180,0.0,2.0,93,0.00,,,0.00,Weather View 32 v70,2013-01-09 08:11:00,
2013-01-09 03:16:00,22.5,20.8,30.21,South,180,0.0,2.0,93,0.00,,,0.00,Weather View 32 v70,2013-01-09 08:16:00,
2013-01-09 03:21:00,22.4,20.7,30.21,South,180,0.0,2.0,93,0.00,,,0.00,Weather View 32 v70,2013-01-09 08:21:00,
2013-01-09 03:26:00,22.3,20.6,30.22,South,180,0.0,1.0,93,0.00,,,0.00,Weather View 32 v70,2013-01-09 08:26:00,
2013-01-09 03:31:00,22.2,20.5,30.21,South,180,0.0,1.0,93,0.00,,,0.00,Weather View 32 v70,2013-01-09 08:31:00,
2013-01-09 03:36:00,22.0,20.3,30.21,South,180,0.0,1.0,93,0.00,,,0.00,Weather View 32 v70,2013-01-09 08:36:00,
2013-01-09 03:41:00,21.9,20.2,30.21,South,180,0.0,0.0,93,0.00,,,0.00,Weather View 32 v70,2013-01-09 08:41:00,
2013-01-09 03:46:00,21.7,20.0,30.21,South,180,0.0,0.0,93,0.00,,,0.00,Weather View 32 v70,2013-01-09 08:46:00,
2013-01-09 03:51:00,21.4,19.7,30.21,South,180,0.0,0.0,93,0.00,,,0.00,Weather View 32 v70,2013-01-09 08:51:00,
2013-01-09 03:56:00,21.3,19.6,30.21,South,180,0.0,0.0,93,0.00,,,0.00,Weather View 32 v70,2013-01-09 08:56:00,
2013-01-09 04:01:00,21.2,19.5,30.22,South,180,0.0,0.0,93,0.00,,,0.00,Weather View 32 v70,2013-01-09 09:01:00,
2013-01-09 04:06:00,21.2,19.5,30.21,South,180,0.0,0.0,93,0.00,,,0.00,Weather View 32 v70,2013-01-09 09:06:00,
2013-01-09 04:11:00,21.1,19.4,30.22,South,180,0.0,0.0,93,0.00,,,0.00,Weather View 32 v70,2013-01-09 09:11:00,
2013-01-09 04:16:00,21.0,19.3,30.22,South,180,0.0,0.0,93,0.00,,,0.00,Weather View 32 v70,2013-01-09 09:16:00,
2013-01-09 04:21:00,21.0,19.3,30.21,South,180,0.0,0.0,93,0.00,,,0.00,Weather View 32 v70,2013-01-09 09:21:00,
2013-01-09 04:26:00,20.9,19.2,30.20,South,180,0.0,0.0,93,0.00,,,0.00,Weather View 32 v70,2013-01-09 09:26:00,
2013-01-09 04:31:00,20.6,18.9,30.21,South,180,0.0,0.0,93,0.00,,,0.00,Weather View 32 v70,2013-01-09 09:31:00,
2013-01-09 04:36:00,20.4,18.7,30.21,South,180,0.0,0.0,93,0.00,,,0.00,Weather View 32 v70,2013-01-09 09:36:00,
2013-01-09 04:41:00,20.5,18.8,30.21,South,180,2.0,2.0,93,0.00,,,0.00,Weather View 32 v70,2013-01-09 09:41:00,
2013-01-09 04:46:00,20.6,18.9,30.21,South,180,0.0,2.0,93,0.00,,,0.00,Weather View 32 v70,2013-01-09 09:46:00,
2013-01-09 04:52:00,20.6,18.9,30.21,South,180,0.0,2.0,93,0.00,,,0.00,Weather View 32 v70,2013-01-09 09:52:00,
2013-01-09 04:57:00,20.4,18.7,30.21,South,180,0.0,2.0,93,0.00,,,0.00,Weather View 32 v70,2013-01-09 09:57:00,
2013-01-09 05:02:00,20.2,18.5,30.21,South,180,0.0,2.0,93,0.00,,,0.00,Weather View 32 v70,2013-01-09 10:02:00,
2013-01-09 05:09:00,19.9,18.2,30.21,South,180,0.0,2.0,93,0.00,,,0.00,Weather View 32 v70,2013-01-09 10:09:00,
2013-01-09 05:14:00,19.9,18.2,30.21,South,180,0.0,2.0,93,0.00,,,0.00,Weather View 32 v70,2013-01-09 10:14:00,
2013-01-09 05:19:00,19.9,18.2,30.21,South,180,0.0,2.0,93,0.00,,,0.00,Weather View 32 v70,2013-01-09 10:19:00,
2013-01-09 05:24:00,19.9,18.2,30.21,South,180,0.0,2.0,93,0.00,,,0.00,Weather View 32 v70,2013-01-09 10:24:00,
2013-01-09 05:29:00,19.8,18.1,30.21,South,180,0.0,2.0,93,0.00,,,0.00,Weather View 32 v70,2013-01-09 10:29:00,
2013-01-09 05:34:00,19.6,17.9,30.22,South,180,0.0,2.0,93,0.00,,,0.00,Weather View 32 v70,2013-01-09 10:34:00,
2013-01-09 05:40:00,19.4,17.7,30.21,South,180,0.0,2.0,93,0.00,,,0.00,Weather View 32 v70,2013-01-09 10:40:00,
2013-01-09 05:45:00,19.4,17.7,30.21,South,180,0.0,0.0,93,0.00,,,0.00,Weather View 32 v70,2013-01-09 10:45:00,
2013-01-09 05:50:00,19.3,17.6,30.21,South,180,0.0,0.0,93,0.00,,,0.00,Weather View 32 v70,2013-01-09 10:50:00,
2013-01-09 05:55:00,19.1,17.4,30.22,South,180,0.0,0.0,93,0.00,,,0.00,Weather View 32 v70,2013-01-09 10:55:00,
2013-01-09 06:00:00,18.9,17.2,30.22,South,180,0.0,0.0,93,0.00,,,0.00,Weather View 32 v70,2013-01-09 11:00:00,
2013-01-09 06:05:00,18.8,17.1,30.22,South,180,0.0,0.0,93,0.00,,,0.00,Weather View 32 v70,2013-01-09 11:05:00,
2013-01-09 06:10:00,18.5,16.8,30.22,South,180,0.0,0.0,93,0.00,,,0.00,Weather View 32 v70,2013-01-09 11:10:00,
2013-01-09 06:15:00,18.6,16.9,30.22,South,180,0.0,0.0,93,0.00,,,0.00,Weather View 32 v70,2013-01-09 11:15:00,
2013-01-09 06:20:00,18.7,17.0,30.22,South,180,0.0,0.0,93,0.00,,,0.00,Weather View 32 v70,2013-01-09 11:20:00,
2013-01-09 06:25:00,18.7,17.0,30.22,South,180,0.0,0.0,93,0.00,,,0.00,Weather View 32 v70,2013-01-09 11:25:00,
2013-01-09 06:30:00,18.8,17.1,30.23,South,180,0.0,0.0,93,0.00,,,0.00,Weather View 32 v70,2013-01-09 11:30:00,
2013-01-09 06:35:00,18.6,16.9,30.23,South,180,0.0,0.0,93,0.00,,,0.00,Weather View 32 v70,2013-01-09 11:35:00,
2013-01-09 06:40:00,18.7,17.0,30.23,South,180,0.0,0.0,93,0.00,,,0.00,Weather View 32 v70,2013-01-09 11:40:00,
2013-01-09 06:45:00,18.5,16.8,30.23,South,180,0.0,0.0,93,0.00,,,0.00,Weather View 32 v70,2013-01-09 11:45:00,
2013-01-09 06:50:00,18.3,16.6,30.23,South,180,0.0,0.0,93,0.00,,,0.00,Weather View 32 v70,2013-01-09 11:50:00,
2013-01-09 06:55:00,18.2,16.5,30.23,South,180,0.0,0.0,93,0.00,,,0.00,Weather View 32 v70,2013-01-09 11:55:00,
2013-01-09 07:00:00,18.0,16.3,30.23,South,180,0.0,0.0,93,0.00,,,0.00,Weather View 32 v70,2013-01-09 12:00:00,
2013-01-09 07:05:00,17.9,16.2,30.23,South,180,0.0,0.0,93,0.00,,,0.00,Weather View 32 v70,2013-01-09 12:05:00,
2013-01-09 07:10:00,18.0,16.3,30.23,SE,135,0.0,2.0,93,0.00,,,0.00,Weather View 32 v70,2013-01-09 12:10:00,
2013-01-09 07:15:00,18.2,16.5,30.24,SE,135,1.0,2.0,93,0.00,,,0.00,Weather View 32 v70,2013-01-09 12:15:00,
2013-01-09 07:20:00,18.2,16.5,30.24,SE,135,0.0,2.0,93,0.00,,,0.00,Weather View 32 v70,2013-01-09 12:20:00,
2013-01-09 07:25:00,18.2,16.5,30.24,West,270,1.0,2.0,93,0.00,,,0.00,Weather View 32 v70,2013-01-09 12:25:00,
2013-01-09 07:30:00,18.2,16.5,30.23,SSE,157,1.0,2.0,93,0.00,,,0.00,Weather View 32 v70,2013-01-09 12:30:00,
2013-01-09 07:35:00,18.4,16.7,30.23,SSE,157,1.0,2.0,93,0.00,,,0.00,Weather View 32 v70,2013-01-09 12:35:00,
2013-01-09 07:40:00,18.7,17.0,30.23,SSE,157,0.0,2.0,93,0.00,,,0.00,Weather View 32 v70,2013-01-09 12:40:00,
2013-01-09 07:45:00,18.7,17.0,30.23,SSE,157,0.0,2.0,93,0.00,,,0.00,Weather View 32 v70,2013-01-09 12:45:00,
2013-01-09 07:50:00,18.7,17.0,30.23,SSE,157,0.0,2.0,93,0.00,,,0.00,Weather View 32 v70,2013-01-09 12:50:00,
2013-01-09 07:55:00,18.8,17.1,30.23,SSE,157,0.0,2.0,93,0.00,,,0.00,Weather View 32 v70,2013-01-09 12:55:00,
2013-01-09 08:00:00,19.0,17.3,30.23,SSE,157,0.0,2.0,93,0.00,,,0.00,Weather View 32 v70,2013-01-09 13:00:00,
2013-01-09 08:05:00,19.2,17.5,30.23,SSE,157,1.0,2.0,93,0.00,,,0.00,Weather View 32 v70,2013-01-09 13:05:00,
2013-01-09 08:10:00,19.6,17.9,30.23,WSW,247,0.0,2.0,93,0.00,,,0.00,Weather View 32 v70,2013-01-09 13:10:00,
2013-01-09 08:15:00,19.9,18.2,30.23,WSW,247,0.0,2.0,93,0.00,,,0.00,Weather View 32 v70,2013-01-09 13:15:00,
2013-01-09 08:20:00,19.9,18.2,30.23,WSW,247,0.0,2.0,93,0.00,,,0.00,Weather View 32 v70,2013-01-09 13:20:00,
2013-01-09 08:25:00,20.1,18.4,30.23,SSW,202,0.0,2.0,93,0.00,,,0.00,Weather View 32 v70,2013-01-09 13:25:00,
2013-01-09 08:30:00,20.7,19.0,30.23,South,180,0.0,2.0,93,0.00,,,0.00,Weather View 32 v70,2013-01-09 13:30:00,
2013-01-09 08:35:00,21.6,19.9,30.23,South,180,0.0,2.0,93,0.00,,,0.00,Weather View 32 v70,2013-01-09 13:35:00,
2013-01-09 08:40:00,21.9,20.2,30.22,South,180,0.0,2.0,93,0.00,,,0.00,Weather View 32 v70,2013-01-09 13:40:00,
2013-01-09 08:45:00,22.3,20.6,30.22,South,180,0.0,2.0,93,0.00,,,0.00,Weather View 32 v70,2013-01-09 13:45:00,
2013-01-09 08:50:00,22.4,20.7,30.22,South,180,0.0,2.0,93,0.00,,,0.00,Weather View 32 v70,2013-01-09 13:50:00,
2013-01-09 08:55:00,22.7,21.0,30.23,South,180,0.0,2.0,93,0.00,,,0.00,Weather View 32 v70,2013-01-09 13:55:00,
2013-01-09 09:00:00,22.9,21.2,30.22,South,180,0.0,2.0,93,0.00,,,0.00,Weather View 32 v70,2013-01-09 14:00:00,
2013-01-09 09:05:00,23.3,21.6,30.22,ESE,112,0.0,2.0,93,0.00,,,0.00,Weather View 32 v70,2013-01-09 14:05:00,
2013-01-09 09:10:00,23.9,22.2,30.22,ESE,112,0.0,2.0,93,0.00,,,0.00,Weather View 32 v70,2013-01-09 14:10:00,
2013-01-09 09:15:00,24.6,22.9,30.22,ESE,112,0.0,2.0,93,0.00,,,0.00,Weather View 32 v70,2013-01-09 14:15:00,
2013-01-09 09:20:00,24.9,23.2,30.22,ESE,112,0.0,2.0,93,0.00,,,0.00,Weather View 32 v70,2013-01-09 14:20:00,
2013-01-09 09:25:00,25.2,23.7,30.21,ESE,112,0.0,2.0,94,0.00,,,0.00,Weather View 32 v70,2013-01-09 14:25:00,
2013-01-09 09:30:00,25.6,24.1,30.22,ESE,112,0.0,2.0,94,0.00,,,0.00,Weather View 32 v70,2013-01-09 14:30:00,
2013-01-09 09:35:00,26.2,24.7,30.21,ESE,112,0.0,2.0,94,0.00,,,0.00,Weather View 32 v70,2013-01-09 14:35:00,
2013-01-09 09:40:00,26.6,25.1,30.20,WSW,247,0.0,2.0,94,0.00,,,0.00,Weather View 32 v70,2013-01-09 14:40:00,
2013-01-09 09:45:00,26.9,25.4,30.20,WSW,247,0.0,2.0,94,0.00,,,0.00,Weather View 32 v70,2013-01-09 14:45:00,
2013-01-09 09:50:00,27.3,25.8,30.19,WSW,247,0.0,2.0,94,0.00,,,0.00,Weather View 32 v70,2013-01-09 14:50:00,
2013-01-09 09:55:00,27.6,26.1,30.20,WSW,247,0.0,2.0,94,0.00,,,0.00,Weather View 32 v70,2013-01-09 14:55:00,
2013-01-09 10:00:00,27.7,26.2,30.19,WSW,247,0.0,2.0,94,0.00,,,0.00,Weather View 32 v70,2013-01-09 15:00:00,
2013-01-09 10:05:00,28.1,26.6,30.19,WSW,247,0.0,2.0,94,0.00,,,0.00,Weather View 32 v70,2013-01-09 15:05:00,
2013-01-09 10:10:00,29.1,27.6,30.20,SE,135,0.0,4.0,94,0.00,,,0.00,Weather View 32 v70,2013-01-09 15:10:00,
2013-01-09 10:15:00,29.6,28.1,30.20,SSW,202,0.0,4.0,94,0.00,,,0.00,Weather View 32 v70,2013-01-09 15:15:00,
2013-01-09 10:20:00,30.1,28.6,30.20,SE,135,0.0,4.0,94,0.00,,,0.00,Weather View 32 v70,2013-01-09 15:20:00,
2013-01-09 10:25:00,30.3,28.8,30.21,WSW,247,1.0,4.0,94,0.00,,,0.00,Weather View 32 v70,2013-01-09 15:25:00,
2013-01-09 10:30:00,30.2,28.7,30.20,WSW,247,1.0,4.0,94,0.00,,,0.00,Weather View 32 v70,2013-01-09 15:30:00,
2013-01-09 10:35:00,29.9,28.4,30.19,WSW,247,0.0,4.0,94,0.00,,,0.00,Weather View 32 v70,2013-01-09 15:35:00,
2013-01-09 10:40:00,30.2,28.7,30.20,WSW,247,0.0,4.0,94,0.00,,,0.00,Weather View 32 v70,2013-01-09 15:40:00,
2013-01-09 10:45:00,30.6,29.1,30.19,WSW,247,0.0,4.0,94,0.00,,,0.00,Weather View 32 v70,2013-01-09 15:45:00,
2013-01-09 10:50:00,30.8,29.3,30.19,WSW,247,0.0,4.0,94,0.00,,,0.00,Weather View 32 v70,2013-01-09 15:50:00,
2013-01-09 10:55:00,30.9,29.4,30.18,WSW,247,0.0,4.0,94,0.00,,,0.00,Weather View 32 v70,2013-01-09 15:55:00,
2013-01-09 11:00:00,31.5,30.2,30.17,WSW,247,0.0,4.0,95,0.00,,,0.00,Weather View 32 v70,2013-01-09 16:00:00,
2013-01-09 11:05:00,31.9,30.6,30.17,WSW,247,1.0,4.0,95,0.00,,,0.00,Weather View 32 v70,2013-01-09 16:05:00,
2013-01-09 11:10:00,32.3,31.0,30.16,WSW,247,2.0,2.0,95,0.00,,,0.00,Weather View 32 v70,2013-01-09 16:10:00,
2013-01-09 11:15:00,32.9,31.6,30.15,WSW,247,0.0,2.0,95,0.00,,,0.00,Weather View 32 v70,2013-01-09 16:15:00,
2013-01-09 11:21:00,33.1,31.8,30.14,WSW,247,0.0,2.0,95,0.00,,,0.00,Weather View 32 v70,2013-01-09 16:21:00,
2013-01-09 11:26:00,33.5,32.2,30.13,ESE,112,0.0,2.0,95,0.00,,,0.00,Weather View 32 v70,2013-01-09 16:26:00,
2013-01-09 11:31:00,33.9,32.6,30.13,SSE,157,1.0,4.0,95,0.00,,,0.00,Weather View 32 v70,2013-01-09 16:31:00,
2013-01-09 11:36:00,34.7,31.8,30.13,South,180,0.0,6.0,89,0.00,,,0.00,Weather View 32 v70,2013-01-09 16:36:00,
2013-01-09 11:41:00,35.2,32.3,30.12,SSW,202,2.0,6.0,89,0.00,,,0.00,Weather View 32 v70,2013-01-09 16:41:00,
2013-01-09 11:46:00,35.5,31.4,30.11,ENE,67,0.0,6.0,85,0.00,,,0.00,Weather View 32 v70,2013-01-09 16:46:00,
2013-01-09 11:51:00,35.7,28.2,30.11,SE,135,2.0,6.0,74,0.00,,,0.00,Weather View 32 v70,2013-01-09 16:51:00,
2013-01-09 11:56:00,35.8,27.7,30.11,South,180,2.0,6.0,72,0.00,,,0.00,Weather View 32 v70,2013-01-09 16:56:00,
2013-01-09 12:01:00,36.0,28.5,30.11,NNW,337,2.0,6.0,74,0.00,,,0.00,Weather View 32 v70,2013-01-09 17:01:00,
2013-01-09 12:06:00,36.1,27.9,30.09,NE,45,3.0,6.0,72,0.00,,,0.00,Weather View 32 v70,2013-01-09 17:06:00,
2013-01-09 12:11:00,35.8,27.7,30.08,ENE,67,4.0,6.0,72,0.00,,,0.00,Weather View 32 v70,2013-01-09 17:11:00,
2013-01-09 12:16:00,35.8,25.9,30.07,NNE,22,0.0,6.0,67,0.00,,,0.00,Weather View 32 v70,2013-01-09 17:16:00,
2013-01-09 12:21:00,35.9,27.4,30.07,ENE,67,1.0,6.0,71,0.00,,,0.00,Weather View 32 v70,2013-01-09 17:21:00,
2013-01-09 12:26:00,35.8,28.6,30.06,NE,45,1.0,6.0,75,0.00,,,0.00,Weather View 32 v70,2013-01-09 17:26:00,
2013-01-09 12:31:00,35.7,27.2,30.05,WNW,292,1.0,6.0,71,0.00,,,0.00,Weather View 32 v70,2013-01-09 17:31:00,
2013-01-09 12:36:00,35.9,26.0,30.06,NNW,337,1.0,6.0,67,0.00,,,0.00,Weather View 32 v70,2013-01-09 17:36:00,
2013-01-09 12:41:00,35.9,27.1,30.06,SSW,202,0.0,6.0,70,0.00,,,0.00,Weather View 32 v70,2013-01-09 17:41:00,
2013-01-09 12:46:00,35.9,26.7,30.07,SE,135,0.0,6.0,69,0.00,,,0.00,Weather View 32 v70,2013-01-09 17:46:00,
2013-01-09 12:51:00,36.0,26.8,30.07,NE,45,1.0,6.0,69,0.00,,,0.00,Weather View 32 v70,2013-01-09 17:51:00,
2013-01-09 12:56:00,36.0,26.5,30.07,WNW,292,1.0,6.0,68,0.00,,,0.00,Weather View 32 v70,2013-01-09 17:56:00,
2013-01-09 13:01:00,36.2,27.4,30.07,NNE,22,0.0,6.0,70,0.00,,,0.00,Weather View 32 v70,2013-01-09 18:01:00,
2013-01-09 13:06:00,36.5,26.6,30.07,NNE,22,2.0,6.0,67,0.00,,,0.00,Weather View 32 v70,2013-01-09 18:06:00,
2013-01-09 13:11:00,37.3,27.0,30.07,NW,315,2.0,8.0,66,0.00,,,0.00,Weather View 32 v70,2013-01-09 18:11:00,
2013-01-09 13:16:00,37.3,26.6,30.07,WNW,292,4.0,8.0,65,0.00,,,0.00,Weather View 32 v70,2013-01-09 18:16:00,
2013-01-09 13:21:00,37.1,26.4,30.05,NNW,337,2.0,8.0,65,0.00,,,0.00,Weather View 32 v70,2013-01-09 18:21:00,
2013-01-09 13:26:00,36.9,27.0,30.06,North,360,1.0,8.0,67,0.00,,,0.00,Weather View 32 v70,2013-01-09 18:26:00,
2013-01-09 13:31:00,36.8,27.2,30.06,WSW,247,4.0,11.0,68,0.00,,,0.00,Weather View 32 v70,2013-01-09 18:31:00,
2013-01-09 13:36:00,36.7,27.5,30.05,NNW,337,4.0,12.0,69,0.00,,,0.00,Weather View 32 v70,2013-01-09 18:36:00,
2013-01-09 13:41:00,36.5,30.0,30.05,NW,315,0.0,12.0,77,0.01,,,0.01,Weather View 32 v70,2013-01-09 18:41:00,
2013-01-09 13:44:00,36.4,30.8,30.05,NNW,337,2.0,12.0,80,0.01,,,0.01,Weather View 32 v70,2013-01-09 18:44:00,
2013-01-09 13:45:00,36.6,31.9,30.04,NNW,337,1.0,12.0,83,0.01,,,0.01,Weather View 32 v70,2013-01-09 18:45:00,
2013-01-09 13:48:00,36.6,31.9,30.04,NNW,337,1.0,12.0,83,0.01,,,0.01,Weather View 32 v70,2013-01-09 18:48:00,
2013-01-09 13:53:00,36.2,27.4,30.03,ENE,67,6.0,12.0,70,0.01,,,0.01,Weather View 32 v70,2013-01-09 18:53:00,
2013-01-09 13:58:00,36.4,29.2,30.01,NW,315,1.0,12.0,75,0.01,,,0.01,Weather View 32 v70,2013-01-09 18:58:00,
2013-01-09 14:03:00,36.7,30.5,30.02,SW,225,0.0,12.0,78,0.01,,,0.01,Weather View 32 v70,2013-01-09 19:03:00,
2013-01-09 14:08:00,36.8,28.6,30.02,NE,45,4.0,12.0,72,0.01,,,0.01,Weather View 32 v70,2013-01-09 19:08:00,
2013-01-09 14:14:00,36.9,28.0,30.02,NNE,22,1.0,12.0,70,0.01,,,0.01,Weather View 32 v70,2013-01-09 19:14:00,
2013-01-09 14:19:00,36.9,31.0,30.02,ENE,67,1.0,12.0,79,0.01,,,0.01,Weather View 32 v70,2013-01-09 19:19:00,
2013-01-09 14:24:00,36.9,30.4,30.01,SE,135,1.0,12.0,77,0.01,,,0.01,Weather View 32 v70,2013-01-09 19:24:00,
2013-01-09 14:29:00,37.1,33.3,30.01,WSW,247,1.0,12.0,86,0.01,,,0.01,Weather View 32 v70,2013-01-09 19:29:00,
2013-01-09 14:34:00,37.2,30.0,30.00,North,360,0.0,12.0,75,0.01,,,0.01,Weather View 32 v70,2013-01-09 19:34:00,
2013-01-09 14:39:00,37.2,33.7,30.01,WNW,292,4.0,12.0,87,0.00,,,0.01,Weather View 32 v70,2013-01-09 19:39:00,
2013-01-09 14:44:00,37.3,33.2,30.00,NW,315,0.0,12.0,85,0.00,,,0.01,Weather View 32 v70,2013-01-09 19:44:00,
2013-01-09 14:49:00,37.3,34.4,30.00,NNW,337,1.0,12.0,89,0.00,,,0.01,Weather View 32 v70,2013-01-09 19:49:00,
2013-01-09 14:54:00,37.2,34.8,29.99,WSW,247,3.0,12.0,91,0.00,,,0.01,Weather View 32 v70,2013-01-09 19:54:00,
2013-01-09 14:59:00,37.1,30.9,29.99,SSE,157,1.0,12.0,78,0.00,,,0.01,Weather View 32 v70,2013-01-09 19:59:00,
2013-01-09 15:04:00,37.2,33.4,29.99,ENE,67,1.0,10.0,86,0.00,,,0.01,Weather View 32 v70,2013-01-09 20:04:00,
2013-01-09 15:09:00,37.2,33.4,29.97,ENE,67,6.0,10.0,86,0.00,,,0.01,Weather View 32 v70,2013-01-09 20:09:00,
2013-01-09 15:14:00,37.1,34.7,29.97,South,180,1.0,10.0,91,0.00,,,0.01,Weather View 32 v70,2013-01-09 20:14:00,
2013-01-09 15:19:00,37.2,30.6,29.95,WNW,292,4.0,10.0,77,0.00,,,0.01,Weather View 32 v70,2013-01-09 20:19:00,
2013-01-09 15:24:00,37.5,36.2,29.94,WNW,292,2.0,10.0,95,0.00,,,0.01,Weather View 32 v70,2013-01-09 20:24:00,
2013-01-09 15:29:00,37.5,36.2,29.93,West,270,0.0,10.0,95,0.00,,,0.01,Weather View 32 v70,2013-01-09 20:29:00,
2013-01-09 15:34:00,37.9,36.6,29.92,NNW,337,3.0,10.0,95,0.00,,,0.01,Weather View 32 v70,2013-01-09 20:34:00,
2013-01-09 15:39:00,38.5,37.5,29.93,NNW,337,1.0,10.0,96,0.00,,,0.01,Weather View 32 v70,2013-01-09 20:39:00,
2013-01-09 15:44:00,38.9,37.9,29.92,North,360,1.0,10.0,96,0.00,,,0.01,Weather View 32 v70,2013-01-09 20:44:00,
2013-01-09 15:49:00,39.1,38.1,29.93,SW,225,2.0,10.0,96,0.00,,,0.01,Weather View 32 v70,2013-01-09 20:49:00,
2013-01-09 15:54:00,39.0,38.0,29.93,NNW,337,5.0,10.0,96,0.01,,,0.02,Weather View 32 v70,2013-01-09 20:54:00,
2013-01-09 15:59:00,38.8,37.8,29.93,North,360,1.0,10.0,96,0.01,,,0.02,Weather View 32 v70,2013-01-09 20:59:00,
2013-01-09 16:04:00,38.4,37.4,29.95,North,360,1.0,10.0,96,0.01,,,0.02,Weather View 32 v70,2013-01-09 21:04:00,
2013-01-09 16:09:00,38.1,37.1,29.94,NNW,337,2.0,10.0,96,0.01,,,0.02,Weather View 32 v70,2013-01-09 21:09:00,
2013-01-09 16:14:00,37.8,36.5,29.93,NNW,337,1.0,9.0,95,0.01,,,0.02,Weather View 32 v70,2013-01-09 21:14:00,
2013-01-09 16:19:00,37.4,36.1,29.93,WNW,292,6.0,9.0,95,0.01,,,0.02,Weather View 32 v70,2013-01-09 21:19:00,
2013-01-09 16:24:00,37.3,36.0,29.93,NNE,22,2.0,12.0,95,0.01,,,0.02,Weather View 32 v70,2013-01-09 21:24:00,
2013-01-09 16:29:00,37.0,35.7,29.92,WNW,292,4.0,12.0,95,0.01,,,0.02,Weather View 32 v70,2013-01-09 21:29:00,
2013-01-09 16:34:00,36.9,35.6,29.91,NNE,22,1.0,12.0,95,0.01,,,0.02,Weather View 32 v70,2013-01-09 21:34:00,
2013-01-09 16:39:00,36.8,35.5,29.90,NW,315,0.0,12.0,95,0.01,,,0.02,Weather View 32 v70,2013-01-09 21:39:00,
2013-01-09 16:44:00,36.6,35.3,29.90,ENE,67,4.0,12.0,95,0.01,,,0.02,Weather View 32 v70,2013-01-09 21:44:00,
2013-01-09 16:49:00,36.8,35.5,29.90,West,270,2.0,12.0,95,0.01,,,0.02,Weather View 32 v70,2013-01-09 21:49:00,
2013-01-09 16:54:00,36.8,35.5,29.89,SW,225,1.0,12.0,95,0.00,,,0.02,Weather View 32 v70,2013-01-09 21:54:00,
2013-01-09 16:59:00,36.8,35.5,29.89,NW,315,3.0,12.0,95,0.00,,,0.02,Weather View 32 v70,2013-01-09 21:59:00,
2013-01-09 17:04:00,36.9,35.6,29.89,WNW,292,2.0,12.0,95,0.00,,,0.02,Weather View 32 v70,2013-01-09 22:04:00,
2013-01-09 17:09:00,36.9,35.6,29.89,WSW,247,2.0,12.0,95,0.00,,,0.02,Weather View 32 v70,2013-01-09 22:09:00,
2013-01-09 17:14:00,36.8,35.5,29.88,West,270,4.0,12.0,95,0.00,,,0.02,Weather View 32 v70,2013-01-09 22:14:00,
2013-01-09 17:19:00,36.6,35.3,29.88,NNW,337,2.0,12.0,95,0.00,,,0.02,Weather View 32 v70,2013-01-09 22:19:00,
2013-01-09 17:24:00,36.5,35.2,29.87,NNW,337,4.0,9.0,95,0.00,,,0.02,Weather View 32 v70,2013-01-09 22:24:00,
2013-01-09 17:29:00,36.3,35.0,29.88,NNW,337,1.0,9.0,95,0.00,,,0.02,Weather View 32 v70,2013-01-09 22:29:00,
2013-01-09 17:34:00,36.2,34.9,29.89,NW,315,4.0,9.0,95,0.00,,,0.02,Weather View 32 v70,2013-01-09 22:34:00,
2013-01-09 17:39:00,36.1,34.8,29.89,NNW,337,2.0,9.0,95,0.00,,,0.02,Weather View 32 v70,2013-01-09 22:39:00,
2013-01-09 17:44:00,35.9,34.6,29.89,West,270,3.0,11.0,95,0.00,,,0.02,Weather View 32 v70,2013-01-09 22:44:00,
2013-01-09 17:49:00,35.7,34.4,29.89,NNW,337,2.0,11.0,95,0.00,,,0.02,Weather View 32 v70,2013-01-09 22:49:00,
2013-01-09 17:54:00,35.3,34.0,29.89,WNW,292,2.0,11.0,95,0.00,,,0.02,Weather View 32 v70,2013-01-09 22:54:00,
2013-01-09 17:59:00,35.1,33.8,29.89,NW,315,1.0,11.0,95,0.00,,,0.02,Weather View 32 v70,2013-01-09 22:59:00,
2013-01-09 18:04:00,34.9,33.6,29.90,WNW,292,1.0,11.0,95,0.00,,,0.02,Weather View 32 v70,2013-01-09 23:04:00,
2013-01-09 18:09:00,34.5,33.2,29.90,WNW,292,2.0,11.0,95,0.00,,,0.02,Weather View 32 v70,2013-01-09 23:09:00,
2013-01-09 18:14:00,34.3,33.0,29.90,NE,45,1.0,11.0,95,0.00,,,0.02,Weather View 32 v70,2013-01-09 23:14:00,
2013-01-09 18:19:00,34.2,32.9,29.90,NNW,337,2.0,11.0,95,0.00,,,0.02,Weather View 32 v70,2013-01-09 23:19:00,
2013-01-09 18:24:00,34.0,32.7,29.89,NW,315,1.0,11.0,95,0.00,,,0.02,Weather View 32 v70,2013-01-09 23:24:00,
2013-01-09 18:29:00,34.0,32.7,29.89,WSW,247,2.0,11.0,95,0.00,,,0.02,Weather View 32 v70,2013-01-09 23:29:00,
2013-01-09 18:34:00,34.2,32.9,29.90,NW,315,2.0,11.0,95,0.00,,,0.02,Weather View 32 v70,2013-01-09 23:34:00,
2013-01-09 18:39:00,34.2,32.9,29.90,NNW,337,1.0,11.0,95,0.00,,,0.02,Weather View 32 v70,2013-01-09 23:39:00,
2013-01-09 18:44:00,34.3,33.0,29.89,WNW,292,2.0,8.0,95,0.00,,,0.02,Weather View 32 v70,2013-01-09 23:44:00,
2013-01-09 18:49:00,34.2,32.9,29.89,NNW,337,0.0,8.0,95,0.00,,,0.02,Weather View 32 v70,2013-01-09 23:49:00,
2013-01-09 18:54:00,33.9,32.6,29.89,West,270,2.0,8.0,95,0.00,,,0.02,Weather View 32 v70,2013-01-09 23:54:00,
2013-01-09 18:59:00,33.8,32.5,29.89,WSW,247,1.0,8.0,95,0.00,,,0.02,Weather View 32 v70,2013-01-09 23:59:00,
2013-01-09 19:04:00,33.8,32.5,29.89,WNW,292,2.0,8.0,95,0.00,,,0.02,Weather View 32 v70,2013-01-10 00:04:00,
2013-01-09 19:09:00,33.7,32.4,29.89,NW,315,3.0,8.0,95,0.00,,,0.02,Weather View 32 v70,2013-01-10 00:09:00,
2013-01-09 19:14:00,33.5,32.2,29.89,NNW,337,1.0,6.0,95,0.00,,,0.02,Weather View 32 v70,2013-01-10 00:14:00,
2013-01-09 19:19:00,33.7,32.4,29.89,NW,315,3.0,7.0,95,0.00,,,0.02,Weather View 32 v70,2013-01-10 00:19:00,
2013-01-09 19:24:00,33.9,32.6,29.89,NNW,337,4.0,7.0,95,0.00,,,0.02,Weather View 32 v70,2013-01-10 00:24:00,
2013-01-09 19:29:00,34.0,32.7,29.88,NW,315,2.0,7.0,95,0.00,,,0.02,Weather View 32 v70,2013-01-10 00:29:00,
2013-01-09 19:34:00,33.9,32.6,29.88,NW,315,2.0,7.0,95,0.00,,,0.02,Weather View 32 v70,2013-01-10 00:34:00,
2013-01-09 19:39:00,34.1,32.8,29.88,NNW,337,2.0,7.0,95,0.01,,,0.03,Weather View 32 v70,2013-01-10 00:39:00,
2013-01-09 19:44:00,34.3,33.0,29.88,NE,45,2.0,7.0,95,0.01,,,0.03,Weather View 32 v70,2013-01-10 00:44:00,
2013-01-09 19:49:00,34.3,33.0,29.87,WNW,292,3.0,7.0,95,0.01,,,0.03,Weather View 32 v70,2013-01-10 00:49:00,
2013-01-09 19:54:00,34.4,33.1,29.88,WNW,292,2.0,7.0,95,0.01,,,0.03,Weather View 32 v70,2013-01-10 00:54:00,
2013-01-09 19:59:00,34.5,33.2,29.87,WNW,292,5.0,7.0,95,0.01,,,0.03,Weather View 32 v70,2013-01-10 00:59:00,
2013-01-09 20:04:00,34.5,33.2,29.87,NW,315,4.0,7.0,95,0.01,,,0.03,Weather View 32 v70,2013-01-10 01:04:00,
2013-01-09 20:09:00,34.3,33.0,29.88,WNW,292,2.0,7.0,95,0.01,,,0.03,Weather View 32 v70,2013-01-10 01:09:00,
2013-01-09 20:15:00,34.1,32.8,29.88,WNW,292,3.0,7.0,95,0.01,,,0.03,Weather View 32 v70,2013-01-10 01:15:00,
2013-01-09 20:20:00,34.1,32.8,29.88,NW,315,2.0,7.0,95,0.01,,,0.03,Weather View 32 v70,2013-01-10 01:20:00,
2013-01-09 20:25:00,33.9,32.6,29.88,NW,315,2.0,7.0,95,0.01,,,0.03,Weather View 32 v70,2013-01-10 01:25:00,
2013-01-09 20:30:00,33.9,32.6,29.88,NNE,22,1.0,7.0,95,0.01,,,0.03,Weather View 32 v70,2013-01-10 01:30:00,
2013-01-09 20:35:00,33.8,32.5,29.88,WNW,292,4.0,7.0,95,0.01,,,0.03,Weather View 32 v70,2013-01-10 01:35:00,
2013-01-09 20:40:00,33.8,32.5,29.89,NNW,337,2.0,7.0,95,0.00,,,0.03,Weather View 32 v70,2013-01-10 01:40:00,
2013-01-09 20:45:00,33.8,32.5,29.88,WSW,247,1.0,7.0,95,0.00,,,0.03,Weather View 32 v70,2013-01-10 01:45:00,
2013-01-09 20:50:00,33.6,32.3,29.89,SW,225,4.0,7.0,95,0.00,,,0.03,Weather View 32 v70,2013-01-10 01:50:00,
2013-01-09 20:55:00,33.6,32.3,29.88,NW,315,2.0,7.0,95,0.00,,,0.03,Weather View 32 v70,2013-01-10 01:55:00,
2013-01-09 21:00:00,33.6,32.3,29.89,NE,45,1.0,7.0,95,0.00,,,0.03,Weather View 32 v70,2013-01-10 02:00:00,
2013-01-09 21:05:00,33.7,32.4,29.88,NW,315,1.0,7.0,95,0.00,,,0.03,Weather View 32 v70,2013-01-10 02:05:00,
2013-01-09 21:10:00,33.8,32.5,29.89,SW,225,3.0,7.0,95,0.00,,,0.03,Weather View 32 v70,2013-01-10 02:10:00,
2013-01-09 21:15:00,34.0,32.7,29.89,WSW,247,3.0,7.0,95,0.00,,,0.03,Weather View 32 v70,2013-01-10 02:15:00,
2013-01-09 21:20:00,34.1,32.8,29.89,WNW,292,1.0,7.0,95,0.00,,,0.03,Weather View 32 v70,2013-01-10 02:20:00,
2013-01-09 21:25:00,34.2,32.9,29.88,WNW,292,2.0,7.0,95,0.00,,,0.03,Weather View 32 v70,2013-01-10 02:25:00,
2013-01-09 21:30:00,34.5,33.2,29.88,WSW,247,2.0,9.0,95,0.00,,,0.03,Weather View 32 v70,2013-01-10 02:30:00,
2013-01-09 21:35:00,35.1,33.8,29.89,WNW,292,2.0,11.0,95,0.00,,,0.03,Weather View 32 v70,2013-01-10 02:35:00,
2013-01-09 21:40:00,35.6,34.3,29.88,WNW,292,3.0,11.0,95,0.00,,,0.03,Weather View 32 v70,2013-01-10 02:40:00,
2013-01-09 21:45:00,36.5,35.2,29.89,ENE,67,2.0,11.0,95,0.00,,,0.03,Weather View 32 v70,2013-01-10 02:45:00,
2013-01-09 21:50:00,37.5,36.2,29.89,ESE,112,1.0,16.0,95,0.00,,,0.03,Weather View 32 v70,2013-01-10 02:50:00,
2013-01-09 21:55:00,37.7,36.4,29.90,NW,315,2.0,16.0,95,0.00,,,0.03,Weather View 32 v70,2013-01-10 02:55:00,
2013-01-09 22:00:00,37.8,36.5,29.90,WSW,247,12.0,16.0,95,0.00,,,0.03,Weather View 32 v70,2013-01-10 03:00:00,
2013-01-09 22:05:00,38.3,37.3,29.91,SSE,157,1.0,16.0,96,0.00,,,0.03,Weather View 32 v70,2013-01-10 03:05:00,
2013-01-09 22:10:00,38.5,37.5,29.91,WSW,247,9.0,16.0,96,0.00,,,0.03,Weather View 32 v70,2013-01-10 03:10:00,
2013-01-09 22:15:00,38.7,37.7,29.91,WNW,292,16.0,16.0,96,0.00,,,0.03,Weather View 32 v70,2013-01-10 03:15:00,
2013-01-09 22:20:00,38.7,37.7,29.91,SW,225,2.0,16.0,96,0.00,,,0.03,Weather View 32 v70,2013-01-10 03:20:00,
2013-01-09 22:25:00,38.8,37.2,29.91,SSW,202,2.0,16.0,94,0.00,,,0.03,Weather View 32 v70,2013-01-10 03:25:00,
2013-01-09 22:30:00,38.8,35.5,29.91,SSE,157,1.0,16.0,88,0.00,,,0.03,Weather View 32 v70,2013-01-10 03:30:00,
2013-01-09 22:35:00,38.9,34.5,29.90,West,270,9.0,16.0,84,0.00,,,0.03,Weather View 32 v70,2013-01-10 03:35:00,
2013-01-09 22:40:00,38.9,33.9,29.91,SSW,202,1.0,16.0,82,0.00,,,0.03,Weather View 32 v70,2013-01-10 03:40:00,
2013-01-09 22:45:00,38.9,32.0,29.91,NW,315,3.0,17.0,76,0.00,,,0.03,Weather View 32 v70,2013-01-10 03:45:00,
2013-01-09 22:50:00,38.9,32.3,29.91,WSW,247,2.0,17.0,77,0.00,,,0.03,Weather View 32 v70,2013-01-10 03:50:00,
2013-01-09 22:55:00,39.1,32.2,29.92,South,180,2.0,17.0,76,0.00,,,0.03,Weather View 32 v70,2013-01-10 03:55:00,
2013-01-09 23:00:00,39.0,31.1,29.92,WSW,247,7.0,17.0,73,0.00,,,0.03,Weather View 32 v70,2013-01-10 04:00:00,
2013-01-09 23:05:00,38.8,32.5,29.92,NW,315,5.0,17.0,78,0.00,,,0.03,Weather View 32 v70,2013-01-10 04:05:00,
2013-01-09 23:10:00,38.8,31.9,29.92,SSW,202,2.0,17.0,76,0.00,,,0.03,Weather View 32 v70,2013-01-10 04:10:00,
2013-01-09 23:15:00,38.7,34.3,29.93,South,180,2.0,17.0,84,0.00,,,0.03,Weather View 32 v70,2013-01-10 04:15:00,
2013-01-09 23:20:00,38.5,35.0,29.92,WNW,292,4.0,17.0,87,0.00,,,0.03,Weather View 32 v70,2013-01-10 04:20:00,
2013-01-09 23:25:00,38.4,36.0,29.92,WNW,292,3.0,17.0,91,0.00,,,0.03,Weather View 32 v70,2013-01-10 04:25:00,
2013-01-09 23:30:00,38.5,35.0,29.92,WSW,247,2.0,17.0,87,0.00,,,0.03,Weather View 32 v70,2013-01-10 04:30:00,
2013-01-09 23:35:00,38.3,35.3,29.93,NNW,337,2.0,17.0,89,0.00,,,0.03,Weather View 32 v70,2013-01-10 04:35:00,
2013-01-09 23:43:00,38.0,33.3,29.93,SSE,157,1.0,17.0,83,0.00,,,0.03,Weather View 32 v70,2013-01-10 04:43:00,
2013-01-09 23:48:00,37.9,33.8,29.93,SSE,157,0.0,17.0,85,0.00,,,0.03,Weather View 32 v70,2013-01-10 04:48:00,
2013-01-09 23:53:00,37.9,33.8,29.93,SE,135,2.0,17.0,85,0.00,,,0.03,Weather View 32 v70,2013-01-10 04:53:00,
2013-01-09 23:58:00,37.9,31.3,29.92,NNW,337,6.0,17.0,77,0.00,,,0.03,Weather View 32 v70,2013-01-10 04:58:00,